Regional Weather Roundup
Issued by NWS Portland, ME

Home | Current Version | Previous Version | Text Only | Print | Product List | Glossary On
Versions: 1 2 3 4 5 6 7 8 9 10 11 12 13 14 15 16 17 18 19 20 21 22 23 24 25 26 27 28 29 30 31 32 33 34 35 36 37 38 39 40 41 42 43 44 45 46 47 48 49 50
000
ASUS41 KGYX 210410
RWRGYX
WEATHER ROUNDUP FOR MAINE AND NEW HAMPSHIRE
NATIONAL WEATHER SERVICE GRAY ME
1200 AM EDT MON APR 21 2014

MEZ002-005-006-010-012-015-018-020-021-024-026-027-029-210500-
MAINE

CITY           SKY/WX    TMP DP  RH WIND       PRES   REMARKS
PORTLAND       CLEAR     37  31  78 CALM      30.34F
SANFORD        CLEAR     30 -18  11 S3        30.33F
BAR HARBOR     PTCLDY    39  36  87 SW8       30.34S
WISCASSET      PTCLDY    32  29  88 CALM      30.35F
ROCKLAND       PTCLDY    36  30  80 SW3       30.34F
FRYEBURG       PTCLDY    33  23  66 S5        30.30F
LEWISTONAUBURN CLEAR     30  21  69 S5        30.31F
AUGUSTA        PTCLDY    36  30  79 S5        30.31F
WATERVILLE     MOCLDY    37  28  70 S6        30.26F
BANGOR         CLOUDY    38  25  59 S9        30.31F
GREENVILLE       N/A     36  24  62 SE6       30.21F
MILLINOCKET    CLOUDY    42  26  53 VRB3      30.26F
HOULTON        CLOUDY    41  25  53 SW6       30.23F
PRESQUE ISLE   MOCLDY    37  21  52 CALM      30.20F
FRENCHVILLE    PTCLDY    38  15  39 S5        30.16F
CARIBOU        MOCLDY    38  20  48 CALM      30.18F
$$

NHZ002-005-008-009-011-012-014-210500-
NEW HAMPSHIRE

CITY           SKY/WX    TMP DP  RH WIND       PRES   REMARKS
PORTSMOUTH     CLEAR     36  31  81 S3        30.33F
ROCHESTER      CLEAR     35  24  64 CALM      30.33F
NASHUA         CLEAR     38  27  65 CALM      30.34F
MANCHESTER     CLEAR     41  27  57 S5        30.31F
CONCORD        CLEAR     38  20  48 SE3       30.32F
LACONIA        FAIR      43  19  39 SW6       30.30F
PLYMOUTH         N/A     35  26  70 CALM      30.30F
BERLIN         PTCLDY    36  27  69 CALM      30.23F
WHITEFIELD     CLEAR     30  23  75 CALM      30.24F
JAFFREY        CLEAR     41  27  57 S7        30.31F
LEBANON        CLEAR     36  24  62 CALM      30.26F
MT WASHINGTON  MOCLDY    30  18  59 W31         N/A  WCI  15
$$

VTZ005-007-008-210500-
VERMONT

CITY           SKY/WX    TMP DP  RH WIND       PRES   REMARKS
ST JOHNSBURY     N/A     36  24  62 MISG      30.22F
MONTPELIER     PTCLDY    46  17  31 S10       30.25F
BURLINGTON     MOCLDY    54  21  27 S8        30.19F
$$

MAZ007-012-024-CTZ003-RIZ002-NYZ038-NYZ072-210500-
SOUTHERN NEW ENGLAND AND NY

CITY           SKY/WX    TMP DP  RH WIND       PRES   REMARKS
BOSTON         PTCLDY    39  32  76 S6        30.36F
WORCESTER      CLEAR     38  26  62 SW8       30.32F
NANTUCKET      CLEAR     35  31  85 E8        30.35F
PROVIDENCE     CLEAR     40  31  70 W3        30.36F
HARTFORD       PTCLDY    41  26  55 S6        30.33F
ALBANY         PTCLDY    50  22  33 S14       30.27F
NEW YORK CITY  PTCLDY    45  28  51 NE3       30.34F
$$

ANZ081-ANZ082-ANZ150-NHZ014-MEZ023>029-210500-
COASTAL MARINE OBSERVATIONS

STATION/POSITION TIME  TEMP    WIND        PRES    WAVE
                       AIR SEA DIR/SP/G            HT/PER
                 (UTC) (F)     (DEG/KT/KT) (MB)    (FT/S)
MOUNT DESERT ROC 0400   40                 1027.1F
MATINICUS ROCK   0300   40     220/ 12/ 13 1028.2F
PORTLAND WX BUOY 0400   42 42  210/ 14/ 16 1027.3F   2/ 4
WELLS            0400   37 44  230/  3/  3 1026.8F
ISLE OF SHOALS   0300   41     210/ 15/ 16 1027.3F
JEFFREYS LEDGE   0400      41                N/A     3/ 3
CASHES LEDGE BUO 0400      41  170/ 14/ 17 1027.6F   2/ 9
$$

.............KEY..............
   WCI - WIND CHILL
   TC  - TEMPERATURE IN CELSIUS
   VSB - VISIBILITY IN MILES
   HX  - HEAT INDEX
   FAIR- INDICATES FEW OR NO CLOUDS BELOW 12,000 FT, WITH NO
         SIGNIFICANT WEATHER AND/OR OBSTRUCTIONS TO VISIBILITY.





USA.gov is the U.S. government's official web portal to all federal, state and local government web resources and services.